User: anonymous   Login
Location: Unspecified
(0.0000°N, 0.0000°E)
Time: 23:14:51
(UTC+02:00)
Language:

Meteor 1-31 Rocket - Orbit

View from above orbital plane
View from above orbital plane
View from above satellite
View from above satellite

Ground track
Ground track

The orbit data is extracted from the following two-line orbital elements,

1 12586U 81065B   15108.84266436  .00004519  00000-0  29578-3 0  9999
2 12586 097.4226 101.4138 0021231 039.3603 320.9164 15.08058273837298
Epoch (UTC): 18 April 2015 20:13:26
Eccentricity: 0.0021231
inclination: 97.4226°
perigee height: 527 km
apogee height: 557 km
right ascension of ascending node: 101.4138°
argument of perigee: 39.3603°
revolutions per day: 15.08058273
mean anomaly at epoch: 320.9164°
orbit number at epoch: 83729

The dashed part of the orbit path shows where the satellite is in the earth's shadow,  

DLR